Torna al catalogo

LKW-2

AttivoMilitareSSO
NORAD 43080·PAYLOAD·🇨🇳 China

Lanciato Dec 23, 2017 da Jiuquan Satellite Launch Center

Loading…

Prossimi Passaggi (prossime 24 ore)

TLE

AggiornatoSource: Space-Track

Epoca: Sep 14, 2026, 14:47 UTC

1 43080U 17084A   26257.61610034  .00004143  00000-0  15730-3 0  9999
2 43080  97.1120 293.2606 0000516 355.0898   5.0336 15.27350308485339

Traccia LKW-2 in tempo reale con AllMySat

Download on the App Store